{"data":{"norad_id":57930,"intl_designator":"2023-147T","name":"STARLINK-30476","alt_names":[],"object_type":"PAYLOAD","status":"ACTIVE","operator":null,"country":"US","launch_date":"2023-09-24","launch_site_code":"AFETR","launch_vehicle":null,"mission":null,"orbit_class":"UNKNOWN","rcs_meters":null,"size_class":null,"mass_kg":null,"dimensions":null,"purposes":["comms"],"wikipedia_slug":null,"has_3d_model":false,"image_url":null,"decayed_at":null,"tle_current":{"epoch":"2026-07-30T03:48:38.102112Z","epoch_age_seconds":4656638,"freshness":"OLD","line1":"1 57930U 23147T   26211.15877433  .00747798  28629-3  99150-3 0  9990","line2":"2 57930  42.9817 139.9829 0012348 239.5885 120.3776 16.05736947159544","mean_motion":16.05736947,"eccentricity":0.0012348,"inclination_deg":42.9817,"raan_deg":139.9829,"arg_perigee_deg":239.5885,"mean_anomaly_deg":120.3776,"bstar":0.0009915,"rev_number":15954,"period_min":89.678449679467,"perigee_km":250.36883484419,"apogee_km":266.75883122145,"semimajor_km":6636.7008330328,"source":"CELESTRAK","updated_at":"2026-08-03T09:01:25.172728Z"}}}